sat.trackr.live / text

‹ back to catalog

COSMOS 2546 (EKS 4)

NORAD 45608 · 2020-031A

PAYLOAD ACTIVE UNKNOWN

§ Identity

Operator
Country
CIS
Launch date
2020-05-22
Launch site
PLMSC
Launch vehicle
Mass (kg)
RCS (m²)

External: N2YO · Heavens-Above · Gunter

§ Orbital elements

Epoch: 2026-08-31T07:05:39.834816Z

Period
717.93 min
Inclination
63.1638°
Eccentricity
0.7115327
Mean motion
2.00576418 rev/d
Perigee alt
1,283.3 km
Apogee alt
39,078.8 km
Semi-major
26,559.2 km
B*
0.0000e+0
RAAN
56.8572°
Arg perigee
266.6524°
Mean anomaly
17.3178°
Rev number
4,597

§ Raw data

COSMOS 2546 (EKS 4)1 45608U 20031A   26243.29559994 -.00000360  00000+0  00000+0 0  99962 45608  63.1638  56.8572 7115327 266.6524  17.3178  2.00576418 45977

JSON: /api/v1/satellites/45608 · /tle

For live sub-satellite position, see the globe view (requires WebGL).

§ Visibility from observer

Set your observer location to see the next 7 days of passes ≥ 10°. The values pass through the URL so the page stays shareable.

No JS? Fill the form by hand. The geolocation button needs JavaScript.